Location: Schommer Observatory
(40.5200°N, 74.4500°W)
Time: 16:53:03
(UTC-04:00)

OTV 5 (USA 277) - Pass Details

Date: 15 October 2017
Orbit: 404 x 417 km, 43.0° (Epoch: 07 September)

Event Time Altitude Azimuth Distance (km) Brightness Sun altitude
Rises 18:42:00 0° 263° (W) 2,350 ? -5.5°
Reaches altitude 10° 18:44:07 10° 266° (W) 1,489 ? -5.9°
Maximum altitude 18:47:28 66° 349° (N) 459 ? -6.5°
Drops below altitude 10° 18:50:50 10° 73° (ENE) 1,491 ? -7.1°
Enters shadow 18:51:00 - 73° (ENE) 1,564 ? -7.2°
